2025-135BU

Last updated on Fri Aug 08 2025 00:02:05 GMT+0000 (Coordinated Universal Time)

1 64841U 25135BU 25218.92023475 .00006687 00000+0 65061-3 0 9996 2 64841 97.7503 332.6057 0008623 183.4575 176.6587 14.92839763 7003
UTC large
Height (km)
Speed (km/s)
/
Latitude / Longitude
Inclination (degrees)
Orbital Period (minutes)
Azimuth
Elevation
Range (km)
Doppler Factor

Next 0 passes for location: London (51.5072 / 0.1276)

Sorry there are no passes over London.
2025-135BU